CUBEBUG-2 (LO-74) (39440 NORAD) Tracking and Keplerian Element Data

This shows tracking and keplerian element data for the satellite.

Feedback or suggestion? Click here.




ElementValue
Catalog39440
NameCUBEBUG-2 (LO-74)
Epoch Orbit42121
Epoch Day268.69723715
Epoch Year2021
RAAN233.1534
Inclination97.6876
Eccentricity0.0078183
Argument of Perigee270.4631
Mean Anonmoly88.7621
Mean Motion14.76326528
Decay Rate5.77E-06
L11 39440U 13066AA 21268.69723715 .00000577 00000-0 86463-4 0 9995
L22 39440 97.6876 233.1534 0078183 270.4631 88.7621 14.76326528421212

Live tracking and technical data element details for CUBEBUG-2 (LO-74) (NORAD 39440). CUBEBUG-2 (LO-74) can be tracked NOW for your location showing map with azimuth and elevation plus other details from your city location.

Track the satellite on the map from your city or location and see movement details for azimuth, elevation, latitude, longitude, range, height, and movement on the map or in text.







IsCatalogInMostPopularTable: catalog: 39440, numindb: 526
Update: records affected: 1



GetName: 39440 CUBEBUG-2 (LO-74)

Hit Count: updated at: Mon, 27 Sep 2021 00:49:40 GMT